[[{"header":{"parameterUnit":"m.s-1","parameterCategory":1,"la1":30.2991,"la2":30.254,"lo1":-89.0895,"lo2":-89.0444,"dy":0.0017,"dx":0.0017,"nx":28,"ny":28,"refTime":"2025-08-18T09:00:00:Z","depth":0,"parameterNumber":2,"parameterNumberName":"U-component_of_WINDS"},"data":[0,0,0,0,0,0,0,0,0,0,0,0,0,0,0,0,0,0,0,0,0,0,0,0,0,0,0,0,0,0,0,0,0,0,0,0,0,0,0,0,0,0,0,0,0,0,0,0,0,0,0,0,0,0,0,0,0,0,-0.863,-0.863,0,-0.8657,-0.8658,-0.8658,-0.8608,-0.8606,-0.8605,-0.8603,-0.8633,-0.8635,-0.8638,0,0,0,0,0,0,0,0,0,0,0,0,0,-0.8536,-0.8538,-0.863,-0.863,-0.8631,-0.8657,-0.8658,-0.8658,-0.8608,-0.8606,-0.8604,-0.8602,-0.8632,-0.8635,-0.8638,0,0,0,0,0,0,0,0,0,0,0,0,0,-0.8571,-0.8538,-0.863,-0.8609,-0.8608,-0.8657,-0.8658,-0.8658,-0.8609,-0.8606,-0.8604,-0.8601,-0.8631,-0.8635,-0.8638,-0.871,0,0,-0.8649,-0.8651,0,0,0,0,0,0,0,0,-0.8569,-0.8575,-0.8612,-0.8611,-0.8609,-0.8627,-0.8635,-0.8676,-0.8609,-0.8608,-0.8603,-0.86,-0.8633,-0.8636,-0.8647,-0.8712,-0.8713,-0.8649,-0.8652,-0.8653,-0.8654,0,0,0,0,0,0,0,-0.8567,-0.8573,-0.8641,-0.8612,-0.8611,-0.8599,-0.8601,-0.8643,-0.8635,-0.8608,-0.8605,-0.8608,-0.8632,-0.8644,-0.8647,-0.8713,-0.8649,-0.8652,-0.8655,-0.8656,-0.8837,-0.884,0,0,0,0,0,0,-0.8567,-0.8572,-0.864,-0.8642,-0.8582,-0.8602,-0.8605,-0.8624,-0.8634,-0.8633,-0.8611,-0.8606,-0.8639,-0.8643,-0.8648,-0.8732,-0.8653,-0.8656,-0.8658,-0.8834,-0.8838,-0.884,0,0,0,0,0,0,-0.8565,-0.8573,-0.8639,-0.8606,-0.8613,-0.8607,-0.8628,-0.8625,-0.8637,-0.8636,-0.8634,-0.8624,-0.8637,-0.8643,-0.8695,-0.8733,-0.8658,-0.8661,-0.8831,-0.8835,-0.8839,-0.8902,0,0,0,0,0,0,-0.8563,-0.8573,-0.8601,-0.8607,-0.8615,-0.8685,-0.863,-0.8628,-0.8643,-0.8638,-0.8648,-0.8647,-0.8636,-0.869,-0.8698,-0.8736,-0.8664,-0.8828,-0.8833,-0.8838,-0.8897,-0.8908,-0.8917,0,0,0,0,0,-0.8559,-0.8618,-0.8602,-0.8611,-0.8649,-0.8688,-0.8692,-0.8677,-0.8647,-0.8674,-0.8672,-0.8647,-0.8727,-0.8695,-0.8705,-0.8744,-0.8825,-0.8831,-0.8837,-0.8892,-0.8906,-0.8917,0,0,0,0,0,0,-0.8618,-0.8619,-0.8601,-0.8663,-0.8676,-0.8679,-0.8713,-0.8692,-0.8714,-0.8708,-0.8688,-0.8691,-0.8747,-0.875,-0.8715,-0.8814,-0.8771,-0.8779,-0.881,-0.8822,-0.8833,-0.8831,-0.8667,0,0,0,0,0,-0.8638,-0.8668,-0.8667,-0.8723,-0.8729,-0.872,-0.8737,-0.8723,-0.8736,-0.8741,-0.8743,-0.8757,-0.8784,-0.8804,-0.8829,-0.8896,-0.8898,-0.8928,-0.8939,-0.8947,-0.8955,-0.899,-0.9003,-0.886,-0.886,-0.886,0,0,-0.868,-0.8684,-0.8705,-0.8734,-0.8742,-0.8775,-0.8725,-0.8762,-0.8786,-0.8747,-0.8795,-0.8797,-0.8811,-0.887,-0.8896,-0.8875,-0.8994,-0.8955,-0.8962,-0.8965,-0.8997,-0.9011,-0.9023,-0.8864,-0.8864,-0.8863,0,0,-0.8773,-0.8779,-0.8825,-0.8834,-0.8846,-0.8839,-0.885,-0.8856,-0.8856,-0.8904,-0.8874,-0.8902,-0.8951,-0.8962,-0.8973,-0.9068,-0.9045,-0.9077,-0.9131,-0.9166,-0.9177,-0.9187,-0.922,-0.9232,-0.9084,-0.9084,-0.9084,0,-0.8824,-0.8871,-0.8852,-0.889,-0.8904,-0.8868,-0.8914,-0.8924,-0.8944,-0.8954,-0.893,-0.8989,-0.8996,-0.9056,-0.9079,-0.909,-0.9102,-0.9076,-0.9177,-0.9186,-0.9195,-0.9227,-0.924,-0.9088,-0.9087,-0.9087,-0.9087,0,-0.8933,-0.8966,-0.9002,-0.9021,-0.9038,-0.9081,-0.9068,-0.9088,-0.9072,-0.9068,-0.9117,-0.9123,-0.9149,-0.9162,-0.9148,-0.922,-0.9207,-0.918,-0.9136,-0.9213,-0.9242,-0.9254,-0.9093,-0.9092,-0.9091,-0.909,0,0,-0.9066,-0.9072,-0.9085,-0.9093,-0.9103,-0.9128,-0.9168,-0.9192,-0.9209,-0.9224,-0.9257,-0.9298,-0.9272,-0.9286,-0.9272,-0.9302,-0.9376,-0.9271,-0.9271,-0.929,-0.9455,-0.9476,-0.9491,-0.936,-0.9362,-0.9364,-0.9454,0,-0.9158,-0.9226,-0.9209,-0.9277,-0.9307,-0.9273,-0.9307,-0.9317,-0.9313,-0.9338,-0.9334,-0.9364,-0.9328,-0.9335,-0.9363,-0.9361,-0.9409,-0.9354,-0.9391,-0.9392,-0.9389,-0.9506,-0.9528,-0.9613,-0.9466,-0.9468,-0.9469,0,-0.9275,-0.9293,-0.9364,-0.9367,-0.9379,-0.941,-0.943,-0.9454,-0.9464,-0.9459,-0.9473,-0.9453,-0.9492,-0.9448,-0.9501,-0.9464,-0.9478,-0.9479,-0.9482,-0.9485,-0.9436,-0.9513,-0.964,-0.9653,-0.9487,-0.9486,-0.9484,0,-0.9365,-0.9407,-0.9454,-0.9461,-0.9466,-0.9489,-0.9492,-0.9499,-0.9514,-0.9532,-0.9541,-0.9563,-0.9576,-0.9593,-0.9579,-0.9548,-0.9635,-0.9589,-0.9632,-0.9633,-0.9653,-0.9652,-0.9785,-0.9661,-0.9661,-0.9661,-0.966,0,-0.947,-0.9515,-0.9494,-0.9523,-0.9572,-0.9551,-0.96,-0.9599,-0.9605,-0.9634,-0.9605,-0.9632,-0.9612,-0.9638,-0.9627,-0.9673,-0.9678,-0.9676,-0.9673,-0.9679,-0.9679,-0.9688,-0.9682,-0.9664,-0.9663,-0.9663,-0.9662,0,-0.958,-0.9567,-0.9617,-0.9616,-0.9617,-0.9653,-0.9653,-0.968,-0.9673,-0.9709,-0.9717,-0.9707,-0.9735,-0.9722,-0.9752,-0.9745,-0.9804,-0.9793,-0.98,-0.9798,-0.9841,-0.9837,-0.9985,-1.0003,-0.9867,-0.9869,-0.987,0,-0.9648,-0.9681,-0.9684,-0.9701,-0.9705,-0.9732,-0.9747,-0.9727,-0.9744,-0.9756,-0.9781,-0.9807,-0.9826,-0.9873,-0.9869,-0.9891,-0.988,-0.993,-0.9884,-0.9888,-0.9881,-0.988,-0.9883,-0.994,-0.9942,-0.9943,-0.9944,0,-0.9771,-0.9763,-0.9784,-0.9804,-0.9822,-0.9836,-0.9849,-0.9864,-0.9844,-0.9864,-0.9892,-0.9907,-0.9936,-0.9962,-0.9981,-0.9984,-0.9961,-0.9958,-0.9969,-0.9977,-0.998,-0.9979,-0.9826,-0.9956,-0.9954,-0.9954,-0.9953,-0.9952,-0.9862,-0.989,-0.9895,-0.992,-0.9927,-0.9938,-0.9963,-0.9959,-0.9981,-1.0003,-0.999,-1.0023,-1.003,-1.0053,-1.0059,-1.0084,-1.0065,-1.0081,-1.0085,-1.009,-1.0095,-0.9975,-1.0088,-1.0087,-1.0087,-1.0087,-1.0087,0,-0.9983,-0.9985,-1.0008,-1.0025,-1.0044,-1.0019,-1.003,-1.0048,-1.0077,-1.0085,-1.0104,-1.0136,-1.016,-1.0157,-1.0178,-1.0199,-1.0189,-1.0206,-1.0204,-1.0205,-1.0112,-1.01,-1.0213,-1.0213,-1.0213,-1.0213,-1.0213,-1.0213,-1.0049,-1.0094,-1.0086,-1.0133,-1.0134,-1.0165,-1.0174,-1.0184,-1.019,-1.0226,-1.0246,-1.0243,-1.0246,-1.0268,-1.0288,-1.0287,-1.0296,-1.0317,-1.0312,-1.0225,-1.0212,-1.02,-1.0189,-1.0319,-1.0319,-1.0403,-1.0404,-1.0404]},{"header":{"parameterUnit":"m.s-1","parameterCategory":1,"la1":30.2991,"la2":30.254,"lo1":-89.0895,"lo2":-89.0444,"dy":0.0017,"dx":0.0017,"nx":28,"ny":28,"refTime":"2025-08-18T09:00:00:Z","depth":0,"parameterNumber":3,"parameterNumberName":"V-component_of_WINDS"},"data":[0,0,0,0,0,0,0,0,0,0,0,0,0,0,0,0,0,0,0,0,0,0,0,0,0,0,0,0,0,0,0,0,0,0,0,0,0,0,0,0,0,0,0,0,0,0,0,0,0,0,0,0,0,0,0,0,0,0,-1.5555,-1.5556,0,-1.5643,-1.5644,-1.5645,-1.5671,-1.567,-1.567,-1.567,-1.5756,-1.5758,-1.5761,0,0,0,0,0,0,0,0,0,0,0,0,0,-1.5407,-1.5409,-1.5555,-1.5556,-1.5557,-1.5642,-1.5644,-1.5645,-1.5671,-1.567,-1.567,-1.5669,-1.5755,-1.5758,-1.5761,0,0,0,0,0,0,0,0,0,0,0,0,0,-1.548,-1.541,-1.5555,-1.558,-1.5584,-1.5642,-1.5644,-1.5645,-1.5671,-1.567,-1.567,-1.5669,-1.5754,-1.5758,-1.5762,-1.58,0,0,-1.5774,-1.5776,0,0,0,0,0,0,0,0,-1.5476,-1.5486,-1.5576,-1.5579,-1.5582,-1.5645,-1.5623,-1.5697,-1.5671,-1.5638,-1.567,-1.5669,-1.5719,-1.5726,-1.5744,-1.5804,-1.5808,-1.5774,-1.5777,-1.5779,-1.578,0,0,0,0,0,0,0,-1.5471,-1.5482,-1.5589,-1.5577,-1.5581,-1.5587,-1.5596,-1.5637,-1.5681,-1.5641,-1.5643,-1.5653,-1.5721,-1.574,-1.5746,-1.5809,-1.5774,-1.5778,-1.578,-1.5782,-1.5904,-1.5905,0,0,0,0,0,0,-1.5462,-1.5478,-1.5587,-1.5592,-1.5527,-1.559,-1.5601,-1.5626,-1.5681,-1.5688,-1.5653,-1.5654,-1.5733,-1.5741,-1.5749,-1.5797,-1.5779,-1.5782,-1.5785,-1.5903,-1.5904,-1.5905,0,0,0,0,0,0,-1.5459,-1.5471,-1.5583,-1.5536,-1.555,-1.5593,-1.5621,-1.5628,-1.5647,-1.569,-1.5698,-1.5665,-1.5733,-1.5743,-1.5787,-1.5801,-1.5784,-1.5788,-1.5902,-1.5904,-1.5905,-1.5894,0,0,0,0,0,0,-1.5454,-1.547,-1.5486,-1.5536,-1.5553,-1.5621,-1.5622,-1.563,-1.5654,-1.5655,-1.5703,-1.571,-1.5733,-1.5781,-1.5791,-1.5806,-1.5791,-1.5901,-1.5903,-1.5905,-1.5893,-1.5894,-1.5896,0,0,0,0,0,-1.5449,-1.5478,-1.5486,-1.5499,-1.5573,-1.5621,-1.5631,-1.5658,-1.5655,-1.5671,-1.5699,-1.5709,-1.5798,-1.5785,-1.5797,-1.5813,-1.5901,-1.5903,-1.5904,-1.5892,-1.5894,-1.5896,0,0,0,0,0,0,-1.5427,-1.5485,-1.5495,-1.5541,-1.5577,-1.5626,-1.5646,-1.5659,-1.5694,-1.5694,-1.5725,-1.5735,-1.5777,-1.5799,-1.5785,-1.5853,-1.5849,-1.5854,-1.5836,-1.5838,-1.584,-1.5833,-1.5794,0,0,0,0,0,-1.5428,-1.5463,-1.5512,-1.5548,-1.5565,-1.5603,-1.5625,-1.5643,-1.568,-1.5694,-1.5725,-1.576,-1.5796,-1.5818,-1.5854,-1.5897,-1.5907,-1.5914,-1.5915,-1.5916,-1.5919,-1.5943,-1.5946,-1.5911,-1.5911,-1.5911,0,0,-1.543,-1.5466,-1.5486,-1.5545,-1.5574,-1.5609,-1.5615,-1.5652,-1.5677,-1.5699,-1.5743,-1.5767,-1.5807,-1.5851,-1.5872,-1.5871,-1.5931,-1.5918,-1.5918,-1.5921,-1.5945,-1.5948,-1.5951,-1.5913,-1.5912,-1.5912,0,0,-1.545,-1.5482,-1.5516,-1.5545,-1.559,-1.5615,-1.5623,-1.567,-1.5688,-1.5732,-1.5749,-1.578,-1.5841,-1.5869,-1.5891,-1.5924,-1.5934,-1.5934,-1.594,-1.5964,-1.5966,-1.5969,-1.598,-1.5983,-1.5937,-1.5937,-1.5937,0,-1.5446,-1.5501,-1.5531,-1.5567,-1.5592,-1.5615,-1.5649,-1.5676,-1.5729,-1.5745,-1.5744,-1.5822,-1.585,-1.5901,-1.5909,-1.5926,-1.5936,-1.5928,-1.5964,-1.5967,-1.5969,-1.598,-1.5984,-1.5937,-1.5937,-1.5937,-1.5937,0,-1.5494,-1.5531,-1.5553,-1.5605,-1.5633,-1.5668,-1.5702,-1.5726,-1.5742,-1.5766,-1.5811,-1.5847,-1.5889,-1.5903,-1.5918,-1.5955,-1.5954,-1.5958,-1.5955,-1.5972,-1.5982,-1.5987,-1.5936,-1.5937,-1.5937,-1.5937,0,0,-1.5502,-1.5572,-1.5579,-1.5603,-1.5655,-1.5683,-1.5719,-1.5762,-1.5782,-1.5818,-1.5848,-1.59,-1.5904,-1.5929,-1.5948,-1.5968,-1.5991,-1.597,-1.5971,-1.5972,-1.6034,-1.603,-1.6034,-1.5999,-1.6,-1.6,-1.603,0,-1.5529,-1.5595,-1.5623,-1.5675,-1.571,-1.5733,-1.5764,-1.5798,-1.5822,-1.5854,-1.588,-1.5916,-1.5919,-1.5934,-1.5956,-1.5984,-1.6004,-1.5982,-1.6026,-1.6027,-1.6014,-1.604,-1.6036,-1.6062,-1.6035,-1.6035,-1.6036,0,-1.5569,-1.5607,-1.5663,-1.571,-1.5726,-1.5753,-1.5795,-1.5826,-1.5865,-1.5881,-1.591,-1.5928,-1.5965,-1.596,-1.6011,-1.5996,-1.6015,-1.6032,-1.6033,-1.6038,-1.6032,-1.6044,-1.6071,-1.6075,-1.6043,-1.6042,-1.6042,0,-1.5569,-1.5634,-1.5676,-1.5696,-1.5752,-1.5771,-1.5795,-1.5834,-1.5858,-1.5894,-1.591,-1.595,-1.5972,-1.6001,-1.6029,-1.6023,-1.6077,-1.6075,-1.6091,-1.609,-1.61,-1.6099,-1.613,-1.6114,-1.6114,-1.6114,-1.6114,0,-1.5595,-1.5628,-1.5677,-1.5702,-1.574,-1.5772,-1.5808,-1.5834,-1.5868,-1.5898,-1.592,-1.5948,-1.5983,-1.6015,-1.6037,-1.6075,-1.6085,-1.6098,-1.6103,-1.6096,-1.6094,-1.6108,-1.6107,-1.6115,-1.6115,-1.6115,-1.6114,0,-1.5601,-1.5635,-1.5682,-1.5732,-1.5746,-1.5771,-1.5814,-1.5839,-1.5864,-1.5902,-1.5913,-1.5953,-1.5991,-1.6022,-1.6073,-1.6087,-1.6128,-1.6134,-1.6115,-1.6117,-1.6131,-1.6129,-1.6172,-1.6179,-1.6158,-1.6159,-1.6159,0,-1.5615,-1.5642,-1.5695,-1.5718,-1.5742,-1.5778,-1.5804,-1.5836,-1.5861,-1.5908,-1.5927,-1.5968,-1.6002,-1.6063,-1.6095,-1.6134,-1.6141,-1.6153,-1.6147,-1.6138,-1.614,-1.6138,-1.6141,-1.6153,-1.6154,-1.6154,-1.6154,0,-1.5637,-1.5653,-1.5689,-1.5731,-1.5761,-1.5796,-1.5831,-1.5848,-1.5886,-1.5913,-1.5954,-1.5981,-1.6033,-1.6072,-1.6115,-1.6138,-1.6152,-1.6156,-1.6161,-1.6153,-1.6141,-1.6147,-1.6116,-1.6154,-1.6154,-1.6154,-1.6154,-1.6154,-1.5647,-1.5672,-1.5714,-1.5753,-1.5783,-1.5816,-1.5842,-1.5871,-1.5906,-1.5952,-1.5969,-1.601,-1.6049,-1.6107,-1.6131,-1.6163,-1.6164,-1.6172,-1.6174,-1.6176,-1.6174,-1.6137,-1.6171,-1.6171,-1.6171,-1.6171,-1.6171,0,-1.567,-1.5698,-1.5734,-1.5783,-1.5814,-1.5826,-1.5866,-1.589,-1.5927,-1.5963,-1.5996,-1.6043,-1.6082,-1.6118,-1.6158,-1.6177,-1.6184,-1.6186,-1.6185,-1.619,-1.6172,-1.6163,-1.618,-1.618,-1.618,-1.618,-1.618,-1.618,-1.5685,-1.5727,-1.5747,-1.5804,-1.5832,-1.5874,-1.5896,-1.5925,-1.5954,-1.6005,-1.6038,-1.6062,-1.6097,-1.614,-1.6176,-1.6186,-1.6199,-1.6199,-1.621,-1.6192,-1.6191,-1.619,-1.6182,-1.6202,-1.6202,-1.6226,-1.6226,-1.6226]}]]